Location: Indian Hills
(32.9760°N, 85.9450°W)
Time: 10:26:09
(UTC+00:00)

Cosmos 2026 Rocket - Pass Details

Date: 09 December 2019
Orbit: 940 x 1000 km, 82.9° (Epoch: 26 January)

Event Time Altitude Azimuth Distance (km) Brightness Sun altitude
Rises 10:59:59 0° 358° (N) 3,643 6.8 -19.4°
Reaches altitude 10° 11:02:31 10° 2° (N) 2,702 6.2 -18.9°
Maximum altitude 11:08:38 62° 82° (E) 1,086 4.5 -17.6°
Drops below altitude 10° 11:14:49 10° 163° (SSE) 2,729 6.8 -16.4°
Sets 11:17:22 0° 166° (SSE) 3,681 7.5 -15.9°
